{"data":{"norad_id":69653,"intl_designator":"2026-143E","name":"STARLINK-37729","alt_names":[],"object_type":"PAYLOAD","status":"ACTIVE","operator":null,"country":"US","launch_date":"2026-06-21","launch_site_code":"AFWTR","launch_vehicle":null,"mission":null,"orbit_class":"UNKNOWN","rcs_meters":null,"size_class":null,"mass_kg":null,"dimensions":null,"purposes":["comms"],"wikipedia_slug":null,"has_3d_model":false,"image_url":null,"decayed_at":null,"tle_current":{"epoch":"2026-09-19T08:32:41.791200Z","epoch_age_seconds":120502,"freshness":"FRESH","line1":"1 69653U 26143E   26262.35603925  .00007179  00000+0  27845-3 0  9998","line2":"2 69653  97.2842 305.6751 0000997  97.3607 262.7746 15.26415466 15041","mean_motion":15.26415466,"eccentricity":9.97e-5,"inclination_deg":97.2842,"raan_deg":305.6751,"arg_perigee_deg":97.3607,"mean_anomaly_deg":262.7746,"bstar":0.00027845,"rev_number":1504,"period_min":94.338666770296,"perigee_km":485.85393839657,"apogee_km":487.22275466067,"semimajor_km":6864.6753465286,"source":"CELESTRAK","updated_at":"2026-09-20T09:00:44.247503Z"}}}